1484226000.08,30989,5.81,71912.5,-13.81,-15.29,-15.29,0,*60
1484226001.35,30990,5.81,71926.0,-13.83,-15.25,-15.01,0,*6C
1484226002.61,30991,5.81,71928.0,-13.83,-15.25,-15.25,0,*6B
1484226003.86,30992,5.81,71940.3,-13.81,-15.39,-15.25,0,*67
1484226005.08,30993,5.81,71954.3,-13.81,-15.25,-15.15,0,*68
1484226006.32,30994,5.81,71960.5,-13.79,-15.07,-15.07,0,*6B
1484226007.54,30995,5.81,71962.3,-13.81,-15.11,-15.11,0,*6D
1484226008.78,30996,5.81,71970.5,-13.81,-15.15,-15.01,0,*6B
1484226010.05,30997,5.81,71980.5,-13.79,-15.07,-14.97,0,*60
1484226011.32,30998,5.81,71982.8,-13.79,-14.83,-14.69,0,*63
1484226012.6,30999,5.81,71982.3,-13.79,-14.97,-14.93,0,*62
1484226013.86,31000,5.81,71978.5,-13.79,-15.11,-15.21,0,*6D
1484226015.13,31001,5.81,71980.3,-13.79,-15.11,-14.97,0,*60
1484226016.39,31002,5.81,71982.3,-13.79,-14.97,-15.07,0,*64
1484226017.68,31003,5.81,71980.0,-13.75,-14.79,-14.79,0,*61
1484226018.97,31004,5.81,71982.8,-13.75,-14.75,-14.75,0,*66
1484226020.25,31005,5.81,71984.3,-13.75,-14.75,-14.75,0,*67
1484226021.51,31006,5.81,71986.5,-13.77,-14.79,-14.75,0,*6A
1484226022.78,31007,5.81,71990.0,-13.75,-14.93,-14.89,0,*6E
1484226024.07,31008,5.81,71990.5,-13.75,-14.75,-14.79,0,*66
1484226025.31,31009,5.81,71994.5,-13.75,-14.65,-14.65,0,*6B
1484226026.59,31010,5.81,72006.3,-13.75,-14.75,-14.75,0,*63
1484226027.87,31011,5.81,72008.8,-13.71,-14.93,-14.93,0,*66
1484226029.13,31012,5.81,72010.8,-13.69,-15.01,-14.93,0,*66
1484226030.36,31013,5.81,72008.3,-13.69,-15.11,-15.01,0,*6C
1484226031.64,31014,5.81,72008.5,-13.71,-15.01,-14.93,0,*69
1484226032.93,31015,5.81,72004.8,-13.71,-15.35,-15.43,0,*63
1484226034.21,31016,5.81,72004.8,-13.71,-15.57,-15.57,0,*61
1484226035.46,31017,5.81,72002.3,-13.69,-15.75,-15.85,0,*66
1484226036.75,31018,5.81,72006.3,-13.71,-16.09,-16.17,0,*60
1484226038.04,31019,5.81,72008.3,-13.71,-16.23,-16.17,0,*69
1484226039.33,31020,5.81,72004.5,-13.71,-16.17,-16.17,0,*64
1484226040.58,31021,5.81,72000.5,-13.77,-16.09,-15.99,0,*69
1484226041.88,31022,5.81,71990.3,-13.75,-16.09,-15.89,0,*69
1484226043.09,31023,5.81,71980.0,-13.77,-15.71,-15.71,0,*61
1484226044.31,31024,5.81,71974.8,-13.77,-15.67,-15.63,0,*62
1484226045.55,31025,5.81,71960.3,-13.75,-15.75,-15.67,0,*66
1484226046.77,31026,5.81,71960.5,-13.77,-15.71,-15.63,0,*67
1484226048.0,31027,5.81,71952.8,-13.75,-15.67,-15.63,0,*63
1484226049.27,31028,5.81,71954.5,-13.77,-15.81,-15.81,0,*6A
1484226050.51,31029,5.81,71956.0,-13.77,-15.99,-15.85,0,*66
1484226051.78,31030,5.81,71960.3,-13.77,-16.09,-16.13,0,*68
1484226053.0,31031,5.81,71948.8,-13.77,-16.41,-16.37,0,*63
1484226054.24,31032,5.81,71940.0,-13.77,-16.27,-16.37,0,*60
1484226055.51,31033,5.81,71920.5,-13.79,-16.51,-16.41,0,*6F
1484226056.74,31034,5.81,71910.5,-13.81,-16.59,-16.59,0,*6E
1484226057.98,31035,5.81,71910.0,-13.81,-16.75,-16.65,0,*6E
1484226059.26,31036,5.81,71898.0,-13.81,-16.65,-16.65,0,*6C
1484226060.48,31037,5.81,71858.5,-13.81,-16.75,-16.79,0,*61
1484226061.7,31038,5.81,71856.5,-13.85,-16.83,-16.79,0,*63
1484226062.92,31039,5.81,71870.8,-13.85,-16.45,-16.45,0,*67
1484226064.14,31040,5.81,71882.8,-13.85,-16.37,-16.37,0,*69
1484226065.35,31041,5.81,71896.8,-13.85,-16.37,-16.37,0,*68
1484226066.65,31042,5.81,71938.3,-13.87,-16.17,-16.17,0,*69
1484226067.9,31043,5.81,71950.8,-13.89,-15.95,-15.85,0,*67
1484226069.2,31044,5.81,71960.3,-13.87,-15.81,-15.81,0,*6F
1484226070.44,31045,5.81,71966.0,-13.87,-15.71,-15.63,0,*6D
1484226071.71,31046,5.81,71976.0,-13.87,-15.63,-15.43,0,*6F
1484226072.98,31047,5.81,71976.8,-13.87,-15.49,-15.43,0,*66
1484226074.21,31048,5.81,71970.0,-13.89,-15.63,-15.53,0,*6E
1484226075.44,31049,5.81,71974.5,-13.89,-15.63,-15.53,0,*6F
1484226076.69,31050,5.81,71964.8,-13.85,-15.57,-15.49,0,*67
1484226077.99,31051,5.81,71964.5,-13.87,-15.35,-15.43,0,*6A
1484226079.26,31052,5.81,71968.8,-13.87,-15.29,-15.21,0,*60
1484226080.53,31053,5.81,71968.5,-13.87,-15.29,-15.35,0,*64
1484226081.77,31054,5.81,71972.0,-13.85,-15.29,-15.35,0,*61
1484226083.02,31055,5.81,71972.5,-13.85,-15.35,-15.15,0,*6F
1484226084.27,31056,5.81,71970.5,-13.85,-15.35,-15.29,0,*63
1484226085.52,31057,5.81,71974.8,-13.85,-15.49,-15.43,0,*65
1484226086.77,31058,5.81,71972.3,-13.85,-15.57,-15.49,0,*6F
1484226087.99,31059,5.81,71966.3,-13.85,-15.75,-15.75,0,*61
1484226089.24,31060,5.81,71966.3,-13.87,-15.63,-15.71,0,*6A
1484226090.49,31061,5.81,71962.0,-13.87,-15.75,-15.75,0,*68
1484226091.76,31062,5.81,71956.8,-13.89,-15.85,-15.85,0,*65
1484226093.01,31063,5.81,71958.3,-13.89,-15.81,-15.75,0,*6F
1484226094.26,31064,5.81,71948.8,-13.89,-15.81,-15.75,0,*68
1484226095.54,31065,5.81,71946.5,-13.87,-15.89,-15.75,0,*6F
1484226096.76,31066,5.81,71946.5,-13.89,-15.99,-15.95,0,*6D
1484226098.03,31067,5.81,71938.8,-13.89,-16.13,-16.23,0,*63
1484226099.3,31068,5.81,71932.3,-13.87,-16.09,-16.03,0,*6B
1484226100.61,31069,5.81,71926.8,-13.91,-16.13,-16.09,0,*6C
1484226101.91,31070,5.81,71918.3,-13.91,-16.13,-16.13,0,*6F
1484226103.2,31071,5.81,71912.8,-13.91,-16.13,-16.13,0,*6E
1484226104.48,31072,5.81,71906.5,-13.93,-16.13,-16.09,0,*64
1484226105.76,31073,5.81,71914.5,-13.91,-16.09,-15.95,0,*6A
1484226107.0,31074,5.81,71912.5,-13.93,-16.13,-15.99,0,*68
1484226108.28,31075,5.81,71906.0,-13.91,-16.13,-15.99,0,*6B
1484226109.5,31076,5.81,71908.8,-13.93,-15.95,-15.95,0,*6B
1484226110.77,31077,5.81,71908.8,-13.93,-16.09,-15.85,0,*6D
1484226111.99,31078,5.81,71908.5,-13.93,-15.95,-15.95,0,*65
1484226113.23,31079,5.81,71914.0,-13.93,-15.81,-15.75,0,*6F
1484226114.5,31080,5.81,71914.0,-13.93,-15.81,-15.81,0,*62
1484226115.8,31081,5.81,71916.8,-13.91,-15.81,-15.81,0,*61
1484226117.07,31082,5.81,71926.0,-13.95,-15.81,-15.71,0,*69
1484226118.31,31083,5.81,71928.5,-13.91,-15.67,-15.75,0,*60
1484226119.56,31084,5.81,71934.8,-13.93,-15.75,-15.81,0,*6D
1484226120.86,31085,5.81,71930.0,-13.95,-15.85,-15.81,0,*65
1484226122.13,31086,5.81,71918.8,-13.95,-15.71,-15.81,0,*6D
1484226123.4,31087,5.81,71920.5,-13.95,-15.81,-15.71,0,*6C
1484226124.62,31088,5.81,71918.3,-13.93,-15.67,-15.53,0,*6D
1484226125.85,31089,5.81,71920.3,-13.93,-15.53,-15.49,0,*60
1484226127.13,31090,5.81,71926.3,-13.91,-15.53,-15.39,0,*6D
1484226128.4,31091,5.81,71936.0,-13.91,-15.49,-15.39,0,*67
1484226129.65,31092,5.81,71930.8,-13.91,-15.25,-15.11,0,*64
1484226130.91,31093,5.81,71938.3,-13.91,-15.11,-14.93,0,*69
1484226132.2,31094,5.81,71944.0,-13.91,-14.93,-14.83,0,*64
1484226133.48,31095,5.81,71948.3,-13.89,-14.83,-14.83,0,*6D
1484226134.75,31096,5.81,71956.3,-13.89,-14.93,-14.83,0,*6F
1484226136.03,31097,5.81,71958.0,-13.89,-14.83,-14.75,0,*66
1484226137.31,31098,5.81,71966.5,-13.87,-14.75,-14.75,0,*6E
1484226138.58,31099,5.81,71974.0,-13.89,-14.97,-14.93,0,*65
1484226139.86,31100,5.81,71972.3,-13.87,-15.01,-15.01,0,*6E
1484226141.13,31101,5.81,71976.3,-13.87,-14.89,-14.79,0,*60
1484226142.4,31102,5.81,71976.0,-13.87,-14.89,-14.79,0,*63
1484226143.69,31103,5.81,71982.5,-13.87,-14.93,-15.01,0,*67
1484226144.93,31104,5.81,71990.8,-13.85,-15.07,-14.93,0,*64
1484226146.19,31105,5.81,71992.3,-13.83,-14.75,-14.69,0,*62
1484226147.43,31106,5.81,71992.3,-13.83,-14.69,-14.65,0,*60
1484226148.69,31107,5.81,72000.0,-13.83,-14.75,-14.69,0,*60
1484226149.91,31108,5.81,72002.5,-13.81,-14.69,-14.65,0,*6C
1484226151.12,31109,5.81,72000.5,-13.81,-14.69,-14.69,0,*61
1484226152.38,31110,5.81,72002.3,-13.79,-14.61,-14.51,0,*6D
1484226153.63,31111,5.81,72004.0,-13.79,-14.61,-14.65,0,*6B
1484226154.87,31112,5.81,72006.5,-13.79,-14.65,-14.61,0,*68
1484226156.08,31113,5.81,72006.0,-13.77,-14.65,-14.65,0,*63
1484226157.3,31114,5.81,72006.5,-13.77,-14.65,-14.65,0,*64
1484226158.54,31115,5.81,72006.0,-13.75,-14.61,-14.61,0,*67
1484226159.8,31116,5.81,72004.3,-13.77,-14.79,-14.79,0,*66
1484226161.07,31117,5.81,72006.5,-13.77,-14.93,-14.97,0,*63
1484226162.33,31118,5.81,72004.5,-13.77,-14.97,-14.93,0,*6C
1484226163.61,31119,5.81,72006.3,-13.75,-14.93,-14.79,0,*6F
1484226164.89,31120,5.81,72006.0,-13.71,-14.75,-14.75,0,*65
1484226166.16,31121,5.81,72004.0,-13.71,-14.75,-14.65,0,*65
1484226167.39,31122,5.81,72004.0,-13.71,-14.65,-14.65,0,*67
1484226168.67,31123,5.81,72006.3,-13.71,-14.75,-14.75,0,*66
1484226169.96,31124,5.81,72006.5,-13.71,-14.79,-14.79,0,*61
1484226171.19,31125,5.81,72004.8,-13.69,-14.75,-14.69,0,*64
1484226172.43,31126,5.81,72004.5,-13.69,-14.75,-14.61,0,*6F
1484226173.68,31127,5.81,72004.8,-13.69,-14.75,-14.75,0,*6B
1484226174.97,31128,5.81,72004.5,-13.71,-14.79,-14.75,0,*61
1484226176.2,31129,5.81,72006.0,-13.69,-14.75,-14.69,0,*68
1484226177.47,31130,5.81,72006.8,-13.69,-14.83,-14.75,0,*64
1484226178.7,31131,5.81,72010.8,-13.65,-14.79,-14.69,0,*61
1484226179.94,31132,5.81,72012.0,-13.67,-14.61,-14.61,0,*61
1484226181.2,31133,5.81,72014.8,-13.67,-14.75,-14.69,0,*6D
1484226182.43,31134,5.81,72014.5,-13.65,-14.79,-14.69,0,*64
1484226183.64,31135,5.81,72020.3,-13.65,-14.69,-14.69,0,*64
1484226184.88,31136,5.81,72020.3,-13.65,-14.79,-14.65,0,*6A
1484226186.16,31137,5.81,72026.5,-13.67,-15.01,-15.01,0,*64
1484226187.38,31138,5.81,72024.3,-13.65,-15.07,-15.11,0,*6E
1484226188.64,31139,5.81,72022.8,-13.65,-14.93,-14.93,0,*68
1484226189.91,31140,5.81,72022.0,-13.67,-15.29,-15.39,0,*65
1484226191.14,31141,5.81,72020.3,-13.65,-15.25,-15.25,0,*67
1484226192.38,31142,5.81,72024.3,-13.67,-15.25,-15.25,0,*66
1484226193.63,31143,5.81,72020.0,-13.67,-15.25,-15.25,0,*67
1484226194.87,31144,5.81,72018.5,-13.67,-15.15,-15.15,0,*60
1484226196.15,31145,5.81,72022.3,-13.67,-15.29,-15.39,0,*60
1484226197.41,31146,5.81,72024.3,-13.65,-15.57,-15.57,0,*60
1484226198.66,31147,5.81,72024.8,-13.67,-15.75,-15.75,0,*63
1484226199.9,31148,5.81,72016.5,-13.67,-15.75,-15.75,0,*6C
1484226201.17,31149,5.81,72016.5,-13.67,-15.53,-15.57,0,*69
1484226202.44,31150,5.81,72016.0,-13.67,-15.63,-15.57,0,*62
1484226203.68,31151,5.81,72014.5,-13.67,-15.75,-15.71,0,*60
1484226204.92,31152,5.81,72008.0,-13.69,-15.85,-15.71,0,*62
1484226206.16,31153,5.81,72002.8,-13.71,-16.03,-15.95,0,*6D
1484226207.42,31154,5.81,72002.8,-13.71,-15.81,-15.75,0,*6D
1484226208.69,31155,5.81,71998.3,-13.69,-15.89,-15.85,0,*62
1484226209.98,31156,5.81,71998.3,-13.71,-15.89,-15.89,0,*64
1484226211.25,31157,5.81,71990.5,-13.71,-15.95,-15.81,0,*60
1484226212.46,31158,5.81,71990.8,-13.77,-15.99,-15.95,0,*60
1484226213.7,31159,5.81,71980.5,-13.77,-15.99,-15.85,0,*60
1484226214.94,31160,5.81,71982.5,-13.75,-15.95,-15.95,0,*65
1484226216.18,31161,5.81,71980.8,-13.75,-15.95,-15.95,0,*64
1484226217.39,31162,5.81,71968.3,-13.77,-15.67,-15.67,0,*65
1484226218.66,31163,5.81,71964.3,-13.75,-15.89,-15.75,0,*65
1484226219.9,31164,5.81,71962.0,-13.77,-15.81,-15.67,0,*6B
1484226221.11,31165,5.81,71952.5,-13.77,-15.67,-15.67,0,*62
1484226222.33,31166,5.81,71952.5,-13.77,-15.71,-15.63,0,*62
1484226223.54,31167,5.81,71956.5,-13.77,-15.71,-15.63,0,*63
1484226224.76,31168,5.81,71960.8,-13.77,-15.67,-15.63,0,*6B
1484226225.97,31169,5.81,71958.5,-13.81,-15.71,-15.67,0,*60
1484226227.21,31170,5.81,71960.5,-13.79,-15.71,-15.67,0,*6F
1484226228.43,31171,5.81,71966.5,-13.81,-15.71,-15.67,0,*69
1484226229.65,31172,5.81,71968.8,-13.77,-15.53,-15.63,0,*67
1484226230.87,31173,5.81,71970.0,-13.81,-15.75,-15.71,0,*68
1484226232.11,31174,5.81,71970.3,-13.79,-15.63,-15.67,0,*68
1484226233.34,31175,5.81,71974.8,-13.77,-15.53,-15.49,0,*68
1484226234.61,31176,5.81,71974.3,-13.79,-15.39,-15.49,0,*69
1484226235.88,31177,5.81,71972.3,-13.77,-15.39,-15.35,0,*6D
1484226237.13,31178,5.81,71976.3,-13.79,-15.49,-15.49,0,*60
1484226238.35,31179,5.81,71976.0,-13.77,-15.49,-15.49,0,*6F
1484226239.62,31180,5.81,71976.0,-13.79,-15.49,-15.39,0,*60
1484226240.92,31181,5.81,71972.3,-13.79,-15.39,-15.39,0,*66
1484226242.21,31182,5.81,71970.3,-13.75,-15.35,-15.21,0,*6C
1484226243.45,31183,5.81,71966.5,-13.77,-15.21,-15.11,0,*69
1484226244.68,31184,5.81,71964.8,-13.77,-15.21,-15.07,0,*69
1484226245.94,31185,5.81,71962.3,-13.77,-14.93,-14.93,0,*6C
1484226247.2,31186,5.81,71964.0,-13.77,-14.97,-14.79,0,*6F
1484226248.46,31187,5.81,71966.0,-13.77,-14.97,-14.93,0,*6A
1484226249.73,31188,5.81,71964.3,-13.77,-14.93,-14.93,0,*61
1484226250.99,31189,5.81,71960.0,-13.75,-15.07,-15.01,0,*64
1484226252.23,31190,5.81,71960.8,-13.75,-15.15,-15.15,0,*6A
1484226253.48,31191,5.81,71966.3,-13.77,-15.35,-15.25,0,*68
1484226254.75,31192,5.81,71964.0,-13.75,-15.35,-15.29,0,*65
1484226256.0,31193,5.81,71964.3,-13.77,-15.39,-15.25,0,*66
1484226257.24,31194,5.81,71966.8,-13.75,-15.29,-15.11,0,*65
1484226258.5,31195,5.81,71966.5,-13.75,-15.01,-15.07,0,*69
1484226259.78,31196,5.81,71970.5,-13.75,-15.01,-15.01,0,*6C
1484226261.06,31197,5.81,71970.5,-13.75,-15.01,-14.93,0,*67
1484226262.33,31198,5.81,71968.8,-13.75,-14.89,-14.79,0,*6D
1484226263.59,31199,5.81,71974.8,-13.75,-14.93,-14.89,0,*68
1484226264.86,31200,5.81,71974.5,-13.75,-14.93,-14.89,0,*6B
1484226266.14,31201,5.81,71976.8,-13.75,-14.93,-14.79,0,*65
1484226267.43,31202,5.81,71978.5,-13.75,-14.93,-14.79,0,*66
1484226268.69,31203,5.81,71980.8,-13.71,-15.07,-14.93,0,*6B
1484226269.92,31204,5.81,71980.8,-13.71,-15.07,-15.15,0,*63
1484226271.18,31205,5.81,71980.0,-13.71,-15.07,-15.01,0,*67
1484226272.46,31206,5.81,71984.3,-13.67,-14.97,-14.75,0,*69
1484226273.7,31207,5.81,71984.3,-13.69,-14.97,-14.89,0,*65
1484226274.95,31208,5.81,71988.3,-13.71,-15.01,-14.89,0,*6D
1484226276.18,31209,5.81,71992.3,-13.69,-15.01,-15.11,0,*65
1484226277.4,31210,5.81,71994.8,-13.69,-15.25,-15.11,0,*6B
1484226278.62,31211,5.81,71994.5,-13.69,-15.25,-15.25,0,*6D
1484226279.84,31212,5.81,71996.8,-13.69,-15.25,-15.25,0,*6E
1484226281.1,31213,5.81,72002.3,-13.71,-15.29,-15.35,0,*6B
1484226282.33,31214,5.81,72002.5,-13.69,-15.29,-15.25,0,*64
1484226283.61,31215,5.81,72000.5,-13.71,-15.35,-15.35,0,*60
1484226284.9,31216,5.81,72006.5,-13.71,-15.35,-15.21,0,*66
1484226286.12,31217,5.81,72006.0,-13.69,-15.15,-15.15,0,*6B
1484226287.33,31218,5.81,72000.0,-13.69,-15.29,-15.15,0,*6B
1484226288.6,31219,5.81,72008.8,-13.69,-15.39,-15.39,0,*65
1484226289.82,31220,5.81,72014.8,-13.69,-15.53,-15.53,0,*6F
1484226291.06,31221,5.81,72016.5,-13.69,-15.89,-16.03,0,*6F
1484226292.32,31222,5.81,72014.3,-13.71,-16.03,-16.09,0,*6E
1484226293.56,31223,5.81,72016.0,-13.71,-15.95,-15.95,0,*65
1484226294.85,31224,5.81,72014.5,-13.75,-15.89,-15.89,0,*66
1484226296.09,31225,5.81,72006.0,-13.75,-16.03,-16.03,0,*67
1484226297.39,31226,5.81,72006.0,-13.75,-16.17,-16.17,0,*64
1484226298.68,31227,5.81,71998.5,-13.75,-16.23,-16.17,0,*62
1484226299.9,31228,5.81,71982.5,-13.77,-16.41,-16.37,0,*69
1484226301.14,31229,5.81,71976.8,-13.75,-16.55,-16.45,0,*6A
1484226302.41,31230,5.81,71974.5,-13.77,-16.69,-16.69,0,*61
1484226303.68,31231,5.81,71952.8,-13.79,-16.69,-16.59,0,*6D
1484226304.91,31232,5.81,71958.8,-13.81,-16.55,-16.55,0,*6A
1484226306.16,31233,5.81,71956.0,-13.81,-16.55,-16.31,0,*69
1484226307.4,31234,5.81,71956.0,-13.81,-16.41,-16.31,0,*6B
1484226308.65,31235,5.81,71968.0,-13.83,-16.45,-16.41,0,*6B
1484226309.91,31236,5.81,71956.5,-13.85,-16.31,-16.31,0,*6A
1484226311.21,31237,5.81,71950.0,-13.83,-16.27,-16.13,0,*6A
1484226312.48,31238,5.81,71950.8,-13.83,-16.13,-16.03,0,*63
1484226313.76,31239,5.81,71940.3,-13.85,-16.17,-16.17,0,*65
1484226315.0,31240,5.81,71934.5,-13.83,-16.03,-15.99,0,*6D
1484226316.22,31241,5.81,71934.3,-13.85,-16.03,-16.03,0,*6A
1484226317.46,31242,5.81,71938.0,-13.85,-16.03,-15.89,0,*68
1484226318.68,31243,5.81,71922.0,-13.85,-16.03,-16.03,0,*68
1484226319.92,31244,5.81,71926.0,-13.83,-16.03,-15.99,0,*69
1484226321.19,31245,5.81,71920.8,-13.85,-16.31,-16.13,0,*6E
1484226322.44,31246,5.81,71934.0,-13.85,-16.09,-16.03,0,*67
1484226323.7,31247,5.81,71932.3,-13.85,-16.23,-16.31,0,*6F
1484226324.96,31248,5.81,71922.0,-13.87,-16.51,-16.45,0,*64
1484226326.2,31249,5.81,71908.3,-13.87,-16.45,-16.45,0,*60
1484226327.49,31250,5.81,71910.3,-13.87,-16.31,-16.17,0,*6C
1484226328.78,31251,5.81,71904.8,-13.87,-16.31,-16.31,0,*69
1484226330.05,31252,5.81,71892.3,-13.89,-16.23,-16.23,0,*64
1484226331.32,31253,5.81,71922.8,-13.87,-15.95,-15.89,0,*66
1484226332.59,31254,5.81,71928.8,-13.87,-16.17,-16.03,0,*69
1484226333.86,31255,5.81,71948.0,-13.87,-15.95,-15.85,0,*6C
1484226335.08,31256,5.81,71942.3,-13.89,-15.99,-15.95,0,*6C
1484226336.3,31257,5.81,71944.0,-13.89,-15.75,-15.67,0,*62
1484226337.52,31258,5.81,71940.5,-13.89,-15.99,-15.95,0,*62
1484226338.77,31259,5.81,71940.8,-13.87,-15.75,-15.75,0,*61
1484226340.0,31260,5.81,71956.0,-13.89,-15.75,-15.75,0,*65
1484226341.25,31261,5.81,71966.0,-13.89,-15.81,-15.75,0,*6F
1484226342.47,31262,5.81,71966.3,-13.89,-15.67,-15.67,0,*67
1484226343.74,31263,5.81,71954.8,-13.87,-15.95,-15.89,0,*65
1484226344.99,31264,5.81,71948.5,-13.89,-16.09,-15.95,0,*67
1484226346.24,31265,5.81,71958.3,-13.87,-16.03,-15.95,0,*62
1484226347.49,31266,5.81,71942.8,-13.89,-16.09,-15.99,0,*69
1484226348.77,31267,5.81,71934.5,-13.89,-16.09,-16.13,0,*69
1484226350.04,31268,5.81,71924.5,-13.89,-16.23,-16.23,0,*6D
1484226351.32,31269,5.81,71926.8,-13.89,-16.09,-16.13,0,*67
1484226352.59,31270,5.81,71918.0,-13.89,-16.27,-16.23,0,*60
1484226353.86,31271,5.81,71930.8,-13.91,-16.09,-15.99,0,*66
1484226355.11,31272,5.81,71932.5,-13.93,-16.09,-15.99,0,*67
1484226356.38,31273,5.81,71940.3,-13.91,-15.95,-15.85,0,*6F
1484226357.68,31274,5.81,71954.0,-13.91,-15.85,-15.85,0,*69
1484226358.95,31275,5.81,71950.3,-13.91,-15.85,-15.95,0,*69
1484226360.2,31276,5.81,71930.5,-13.91,-15.95,-15.95,0,*6B
1484226361.43,31277,5.81,71950.0,-13.91,-15.99,-15.99,0,*6A
1484226362.68,31278,5.81,71948.5,-13.93,-16.09,-15.99,0,*6D
1484226363.97,31279,5.81,71936.8,-13.91,-16.23,-16.23,0,*64
1484226365.22,31280,5.81,71898.0,-13.91,-16.55,-16.41,0,*67
1484226366.52,31281,5.81,71924.0,-13.91,-16.23,-16.13,0,*60
1484226367.78,31282,5.81,71954.5,-13.91,-15.99,-15.85,0,*6D
1484226369.03,31283,5.81,71948.0,-13.93,-15.85,-15.75,0,*6C
1484226370.26,31284,5.81,71916.5,-13.93,-15.81,-15.67,0,*6C
1484226371.54,31285,5.81,71950.5,-13.91,-15.63,-15.39,0,*68
1484226372.79,31286,5.81,71950.0,-13.91,-15.63,-15.53,0,*67
1484226374.03,31287,5.81,71930.8,-13.91,-15.75,-15.63,0,*62
1484226375.3,31288,5.81,71942.8,-13.91,-15.81,-15.75,0,*61
1484226376.57,31289,5.81,71930.0,-13.91,-15.81,-15.75,0,*60
1484226377.87,31290,5.81,71894.8,-13.91,-15.85,-15.85,0,*63
1484226379.09,31291,5.81,71896.3,-13.93,-15.99,-15.95,0,*6C
1484226380.33,31292,5.81,71902.5,-13.91,-15.95,-15.95,0,*61
1484226381.6,31293,5.81,71960.5,-13.91,-15.95,-15.81,0,*65
1484226382.83,31294,5.81,71972.3,-13.93,-15.75,-15.75,0,*65
1484226384.07,31295,5.81,71970.3,-13.91,-15.99,-15.95,0,*6A
1484226385.34,31296,5.81,71978.3,-13.91,-15.75,-15.81,0,*6E
1484226386.59,31297,5.81,71982.3,-13.91,-15.75,-15.63,0,*63
1484226387.87,31298,5.81,71984.0,-13.89,-15.39,-15.35,0,*6E
1484226389.12,31299,5.81,71988.0,-13.91,-15.49,-15.49,0,*6A
1484226390.41,31300,5.81,71988.8,-13.91,-15.35,-15.35,0,*6B
1484226391.69,31301,5.81,71988.5,-13.89,-15.85,-15.81,0,*67
1484226392.91,31302,5.81,71988.8,-13.89,-15.67,-15.63,0,*64
1484226394.13,31303,5.81,71986.0,-13.89,-15.67,-15.63,0,*65
1484226395.36,31304,5.81,71984.8,-13.89,-15.75,-15.75,0,*66
1484226396.6,31305,5.81,71990.5,-13.91,-15.75,-15.67,0,*6D
1484226397.85,31306,5.81,71986.0,-13.93,-15.81,-15.75,0,*64
1484226399.12,31307,5.81,71982.5,-13.91,-15.95,-15.85,0,*6D
1484226400.34,31308,5.81,71990.3,-13.89,-15.75,-15.67,0,*69
1484226401.56,31309,5.81,71992.5,-13.89,-15.75,-15.67,0,*68
1484226402.86,31310,5.81,71996.8,-13.91,-15.85,-15.81,0,*6E
1484226404.14,31311,5.81,71994.3,-13.89,-16.13,-16.27,0,*65
1484226405.41,31312,5.81,71990.5,-13.91,-15.85,-15.75,0,*67
1484226406.63,31313,5.81,71992.0,-13.89,-15.67,-15.67,0,*60
1484226407.89,31314,5.81,71992.5,-13.89,-15.53,-15.39,0,*6B
1484226409.11,31315,5.81,71994.3,-13.89,-15.63,-15.63,0,*66
1484226410.33,31316,5.81,71994.8,-13.89,-15.75,-15.67,0,*66
1484226411.58,31317,5.81,71996.3,-13.89,-15.81,-15.67,0,*6C
1484226412.82,31318,5.81,71996.3,-13.89,-15.81,-15.75,0,*60
1484226414.05,31319,5.81,71994.0,-13.89,-15.75,-15.67,0,*69
1484226415.3,31320,5.81,71994.5,-13.89,-15.63,-15.39,0,*6F
1484226416.53,31321,5.81,71986.3,-13.89,-15.63,-15.49,0,*69
1484226417.78,31322,5.81,71984.0,-13.87,-15.63,-15.49,0,*64
1484226419.03,31323,5.81,71988.8,-13.89,-15.53,-15.35,0,*63
1484226420.27,31324,5.81,71994.5,-13.89,-15.63,-15.49,0,*6C
1484226421.49,31325,5.81,71976.3,-13.89,-15.49,-15.49,0,*65
1484226422.79,31326,5.81,71984.0,-13.87,-15.43,-15.43,0,*68
1484226424.07,31327,5.81,71980.0,-13.87,-15.35,-15.29,0,*64
1484226425.32,31328,5.81,71984.5,-13.89,-15.39,-15.25,0,*65
1484226426.62,31329,5.81,71976.3,-13.87,-15.35,-15.35,0,*67
1484226427.89,31330,5.81,71972.3,-13.87,-15.43,-15.49,0,*65
1484226429.19,31331,5.81,71984.8,-13.87,-15.43,-15.43,0,*6E
1484226430.43,31332,5.81,71996.3,-13.85,-15.49,-15.35,0,*64
1484226431.7,31333,5.81,72006.5,-13.87,-15.49,-15.57,0,*63
1484226432.95,31334,5.81,72006.0,-13.87,-15.71,-15.71,0,*6B
1484226434.19,31335,5.81,71998.0,-13.87,-15.75,-15.71,0,*6E
1484226435.41,31336,5.81,71992.8,-13.85,-15.71,-15.63,0,*68
1484226436.66,31337,5.81,71994.0,-13.87,-15.71,-15.63,0,*6B
1484226437.92,31338,5.81,71996.3,-13.87,-15.71,-15.57,0,*63
1484226439.18,31339,5.81,71990.5,-13.87,-15.71,-15.49,0,*6D
1484226440.43,31340,5.81,71994.8,-13.87,-15.63,-15.49,0,*60
1484226441.65,31341,5.81,71994.5,-13.89,-15.67,-15.53,0,*60
1484226442.9,31342,5.81,71992.8,-13.87,-15.49,-15.49,0,*6A
1484226444.15,31343,5.81,71992.5,-13.87,-15.71,-15.71,0,*6B
1484226445.43,31344,5.81,71992.5,-13.89,-15.85,-15.81,0,*66
1484226446.71,31345,5.81,71990.0,-13.89,-16.09,-16.09,0,*63
1484226448.01,31346,5.81,71996.5,-13.87,-15.81,-15.81,0,*6E
1484226449.26,31347,5.81,71990.8,-13.89,-16.09,-15.99,0,*6B
1484226450.53,31348,5.81,71998.8,-13.87,-16.17,-16.03,0,*65
1484226451.77,31349,5.81,71996.0,-13.89,-16.23,-15.99,0,*6D
1484226453.0,31350,5.81,71990.5,-13.89,-16.41,-15.99,0,*61
1484226454.23,31351,5.81,71994.8,-13.89,-16.41,-15.99,0,*60
1484226455.47,31352,5.81,71994.0,-13.87,-16.37,-16.03,0,*6C
1484226456.74,31353,5.81,71988.0,-13.89,-16.31,-16.23,0,*67
1484226458.01,31354,5.81,71992.8,-13.89,-16.51,-16.27,0,*62
1484226459.28,31355,5.81,71988.8,-13.91,-16.69,-16.55,0,*64
1484226460.58,31356,5.81,71978.8,-13.91,-16.65,-16.51,0,*6F
1484226461.8,31357,5.81,71986.5,-13.93,-16.55,-16.55,0,*6B
1484226463.07,31358,5.81,71986.8,-13.93,-16.69,-16.65,0,*68
1484226464.34,31359,5.81,71986.3,-13.93,-16.69,-16.69,0,*65
1484226465.56,31360,5.81,71990.5,-13.99,-16.93,-16.75,0,*6D
1484226466.83,31361,5.81,71974.5,-13.95,-16.41,-16.31,0,*6F
1484226468.07,31362,5.81,71972.3,-13.95,-16.41,-16.41,0,*6B
1484226469.32,31363,5.81,71974.8,-13.99,-16.45,-16.31,0,*65
1484226470.59,31364,5.81,71976.3,-13.99,-16.23,-16.17,0,*66
1484226471.86,31365,5.81,71976.3,-13.99,-16.51,-16.51,0,*60
1484226473.07,31366,5.81,71970.5,-13.99,-16.45,-16.37,0,*66
1484226474.34,31367,5.81,71960.3,-14.01,-16.03,-15.89,0,*65
1484226475.59,31368,5.81,71976.5,-14.01,-15.95,-15.95,0,*6B
1484226476.86,31369,5.81,71976.5,-14.01,-15.95,-15.85,0,*6B
1484226478.15,31370,5.81,71984.0,-14.01,-15.89,-15.89,0,*62
1484226479.39,31371,5.81,71994.3,-14.01,-15.71,-15.63,0,*60
1484226480.64,31372,5.81,71980.8,-14.01,-15.71,-15.71,0,*60
1484226481.86,31373,5.81,71972.0,-13.99,-15.75,-15.71,0,*63
1484226483.08,31374,5.81,71968.8,-14.03,-15.75,-15.75,0,*64
1484226484.33,31375,5.81,71958.8,-14.01,-15.75,-15.71,0,*63
1484226485.57,31376,5.81,71944.3,-14.01,-15.71,-15.63,0,*67
1484226486.82,31377,5.81,71954.5,-14.01,-15.75,-15.63,0,*62
1484226488.06,31378,5.81,71960.3,-14.01,-15.75,-15.63,0,*6D
1484226489.31,31379,5.81,71962.5,-14.01,-15.71,-15.63,0,*68
1484226490.53,31380,5.81,71958.0,-13.99,-15.71,-15.71,0,*6B
1484226491.77,31381,5.81,71950.3,-13.99,-15.63,-15.57,0,*6D
1484226492.99,31382,5.81,71940.0,-13.99,-15.63,-15.71,0,*6A
1484226494.24,31383,5.88,71948.0,-13.99,-15.57,-15.49,0,*67
1484226495.54,31384,5.88,71932.5,-13.95,-15.43,-15.39,0,*6E
1484226496.82,31385,5.81,71916.5,-13.99,-15.35,-15.43,0,*6F
1484226498.09,31386,5.81,71928.0,-13.99,-15.35,-15.21,0,*68
1484226499.33,31387,5.81,71922.3,-13.99,-15.49,-15.35,0,*67
1484226500.61,31388,5.81,71916.5,-13.95,-15.43,-15.29,0,*63